Big Bear Station Historical Data
Daily Summary for September 20, 2017 Units:  English    Metric   Both
Next Day »
Daily Weekly Monthly Yearly Custom
  High: Low: Average:
Temperature: 74.1 °F 46.4 °F 55.6 °F
Dew Point: 50.6 °F 28.9 °F 39.3 °F
Humidity: 78% 24% 56%
Wind Speed: 6.3mph 0.0mph 1.6mph
Wind Gust: -999.0mph - -
Wind- - WSW
Pressure: 30.10 in 30.05 in -
Precipitation: 0.00 in    
Historical Graphs
 
 
Tabular Data for September 20, 2017
Time Temperature Dew Point Pressure Wind Wind Speed Wind Gust Humidity Rainfall Rate (Hourly)
00:11 48.2 °F 31.4 °F 30.10 in Calm   -999.0 mph 52% 0 in
00:26 48.0 °F 32.6 °F 30.10 in Calm   -999.0 mph 55% 0 in
00:56 47.8 °F 32.4 °F 30.10 in Calm   -999.0 mph 55% 0 in
01:12 47.5 °F 30.7 °F 30.10 in Calm   -999.0 mph 52% 0 in
01:27 48.0 °F 30.7 °F 30.09 in Calm   -999.0 mph 51% 0 in
01:42 48.4 °F 31.6 °F 30.09 in South 3.2 mph -999.0 mph 52% 0 in
01:57 47.5 °F 32.1 °F 30.09 in Calm   -999.0 mph 55% 0 in
02:12 48.6 °F 33.6 °F 30.09 in Calm   -999.0 mph 56% 0 in
02:28 49.6 °F 31.2 °F 30.09 in South 2.2 mph -999.0 mph 49% 0 in
02:43 48.7 °F 31.9 °F 30.08 in Calm   -999.0 mph 52% 0 in
02:58 50.7 °F 31.7 °F 30.08 in Calm   -999.0 mph 48% 0 in
03:13 49.6 °F 30.2 °F 30.08 in Calm   -999.0 mph 47% 0 in
03:28 50.2 °F 29.7 °F 30.08 in Calm   -999.0 mph 45% 0 in
03:44 50.0 °F 28.9 °F 30.08 in SSW 2.7 mph -999.0 mph 44% 0 in
03:59 48.9 °F 29.0 °F 30.08 in Calm   -999.0 mph 46% 0 in
04:14 48.4 °F 30.6 °F 30.08 in SSE 1.1 mph -999.0 mph 50% 0 in
04:29 47.8 °F 30.1 °F 30.08 in SSE 1.7 mph -999.0 mph 50% 0 in
04:45 47.8 °F 30.1 °F 30.08 in SSW 1.7 mph -999.0 mph 50% 0 in
05:00 48.0 °F 31.7 °F 30.08 in Calm   -999.0 mph 53% 0 in
05:15 47.7 °F 32.3 °F 30.07 in Calm   -999.0 mph 55% 0 in
05:30 47.3 °F 33.7 °F 30.07 in Calm   -999.0 mph 59% 0 in
05:45 47.1 °F 36.7 °F 30.08 in Calm   -999.0 mph 67% 0 in
06:01 46.6 °F 35.5 °F 30.08 in Calm   -999.0 mph 65% 0 in
06:16 46.9 °F 33.7 °F 30.08 in Calm   -999.0 mph 60% 0 in
06:31 46.8 °F 33.2 °F 30.08 in Calm   -999.0 mph 59% 0 in
06:46 46.4 °F 33.3 °F 30.08 in South 2.7 mph -999.0 mph 60% 0 in
07:01 46.6 °F 35.5 °F 30.08 in South 2.2 mph -999.0 mph 65% 0 in
07:17 46.9 °F 34.6 °F 30.08 in South 1.1 mph -999.0 mph 62% 0 in
07:32 47.3 °F 31.0 °F 30.09 in Calm   -999.0 mph 53% 0 in
07:47 48.0 °F 30.2 °F 30.09 in Calm   -999.0 mph 50% 0 in
08:02 48.6 °F 33.2 °F 30.09 in Calm   -999.0 mph 55% 0 in
08:17 49.6 °F 37.5 °F 30.09 in Calm   -999.0 mph 63% 0 in
08:33 51.1 °F 38.9 °F 30.09 in Calm   -999.0 mph 63% 0 in
08:48 52.3 °F 38.4 °F 30.09 in Calm   -999.0 mph 59% 0 in
09:03 53.4 °F 40.7 °F 30.09 in Calm   -999.0 mph 62% 0 in
09:18 55.4 °F 41.7 °F 30.09 in Calm   -999.0 mph 60% 0 in
09:34 57.9 °F 39.9 °F 30.10 in Calm   -999.0 mph 51% 0 in
09:49 60.1 °F 35.1 °F 30.09 in Calm   -999.0 mph 39% 0 in
10:04 63.3 °F 29.6 °F 30.10 in NNW 3.2 mph -999.0 mph 28% 0 in
10:20 64.8 °F 32.6 °F 30.10 in NW 3.7 mph -999.0 mph 30% 0 in
10:35 65.5 °F 34.9 °F 30.10 in NW 2.7 mph -999.0 mph 32% 0 in
10:50 67.6 °F 35.9 °F 30.10 in NNW 4.2 mph -999.0 mph 31% 0 in
11:05 69.4 °F 34.9 °F 30.10 in West 3.2 mph -999.0 mph 28% 0 in
11:21 70.3 °F 36.5 °F 30.10 in WNW 4.7 mph -999.0 mph 29% 0 in
11:52 72.1 °F 39.0 °F 30.10 in WNW 3.2 mph -999.0 mph 30% 0 in
12:07 74.1 °F 35.0 °F 30.09 in Calm   -999.0 mph 24% 0 in
12:22 73.9 °F 40.5 °F 30.09 in NNW 4.7 mph -999.0 mph 30% 0 in
12:37 70.9 °F 47.3 °F 30.09 in NNE 2.7 mph -999.0 mph 43% 0 in
12:52 70.7 °F 47.1 °F 30.09 in NNW 4.2 mph -999.0 mph 43% 0 in
13:08 70.9 °F 46.7 °F 30.09 in NW 5.3 mph -999.0 mph 42% 0 in
13:23 70.7 °F 47.7 °F 30.09 in NW 5.8 mph -999.0 mph 44% 0 in
13:38 69.6 °F 47.9 °F 30.09 in WNW 2.7 mph -999.0 mph 46% 0 in
13:53 69.8 °F 44.4 °F 30.09 in NE 6.3 mph -999.0 mph 40% 0 in
14:09 68.0 °F 45.9 °F 30.09 in NW 3.7 mph -999.0 mph 45% 0 in
14:24 69.1 °F 46.3 °F 30.08 in NW 2.7 mph -999.0 mph 44% 0 in
14:39 68.0 °F 47.0 °F 30.08 in WSW 1.7 mph -999.0 mph 47% 0 in
14:54 66.9 °F 48.7 °F 30.08 in NW 4.2 mph -999.0 mph 52% 0 in
15:10 65.3 °F 48.7 °F 30.08 in South 5.3 mph -999.0 mph 55% 0 in
15:26 65.3 °F 49.2 °F 30.08 in North 3.7 mph -999.0 mph 56% 0 in
15:41 64.9 °F 50.2 °F 30.08 in NNW 5.3 mph -999.0 mph 59% 0 in
15:56 64.0 °F 48.9 °F 30.08 in WNW 4.2 mph -999.0 mph 58% 0 in
16:11 63.9 °F 48.8 °F 30.07 in NW 3.2 mph -999.0 mph 58% 0 in
16:27 63.3 °F 49.2 °F 30.07 in NW 4.7 mph -999.0 mph 60% 0 in
16:42 64.0 °F 49.4 °F 30.07 in WNW 5.8 mph -999.0 mph 59% 0 in
16:57 62.8 °F 50.4 °F 30.07 in NW 3.7 mph -999.0 mph 64% 0 in
17:12 62.1 °F 50.6 °F 30.07 in WNW 3.2 mph -999.0 mph 66% 0 in
17:27 60.6 °F 50.0 °F 30.07 in West 1.1 mph -999.0 mph 68% 0 in
17:43 58.8 °F 49.8 °F 30.07 in NNE 5.8 mph -999.0 mph 72% 0 in
17:58 57.2 °F 49.3 °F 30.07 in NW 1.1 mph -999.0 mph 75% 0 in
18:13 56.3 °F 48.8 °F 30.07 in NW 2.7 mph -999.0 mph 76% 0 in
18:29 55.2 °F 48.5 °F 30.07 in Calm   -999.0 mph 78% 0 in
18:44 54.7 °F 46.6 °F 30.06 in Calm   -999.0 mph 74% 0 in
18:59 53.8 °F 46.1 °F 30.06 in East 1.1 mph -999.0 mph 75% 0 in
19:14 53.2 °F 45.8 °F 30.06 in Calm   -999.0 mph 76% 0 in
19:30 52.7 °F 44.3 °F 30.06 in Calm   -999.0 mph 73% 0 in
19:45 52.2 °F 43.8 °F 30.06 in Calm   -999.0 mph 73% 0 in
20:00 51.8 °F 39.6 °F 30.06 in NNE 2.2 mph -999.0 mph 63% 0 in
20:15 51.4 °F 39.2 °F 30.06 in West 1.1 mph -999.0 mph 63% 0 in
20:31 51.1 °F 39.3 °F 30.07 in Calm   -999.0 mph 64% 0 in
20:46 50.7 °F 39.0 °F 30.07 in Calm   -999.0 mph 64% 0 in
21:01 50.7 °F 39.8 °F 30.07 in Calm   -999.0 mph 66% 0 in
21:16 50.2 °F 39.7 °F 30.07 in Calm   -999.0 mph 67% 0 in
21:31 50.0 °F 39.5 °F 30.07 in Calm   -999.0 mph 67% 0 in
21:47 50.0 °F 39.9 °F 30.07 in Calm   -999.0 mph 68% 0 in
22:02 49.3 °F 39.2 °F 30.06 in Calm   -999.0 mph 68% 0 in
22:17 49.3 °F 39.6 °F 30.06 in Calm   -999.0 mph 69% 0 in
22:32 49.1 °F 40.5 °F 30.06 in Calm   -999.0 mph 72% 0 in
22:47 49.3 °F 41.4 °F 30.06 in Calm   -999.0 mph 74% 0 in
23:03 49.3 °F 41.7 °F 30.06 in NW 2.7 mph -999.0 mph 75% 0 in
23:18 48.9 °F 41.3 °F 30.06 in Calm   -999.0 mph 75% 0 in
23:33 48.4 °F 40.8 °F 30.06 in Calm   -999.0 mph 75% 0 in
23:48 48.0 °F 39.0 °F 30.05 in WNW 1.1 mph -999.0 mph 71% 0 in
Big Bear CA Weather